K1DRD Weather Reports


time (UTC)temp
F
wind
direction
speed
knots
gust
knots
rain 1hr
in
rain 24hr
in
rain mn
in
humidity
%
barometer
mb
20260507060503 55 296 0.9 2.6 0.00 0.09 0.00 80 1006.3
20260507060015 56 269 1.7 2.6 0.00 0.09 0.00 80 1006.3
20260507055508 56 285 0.9 3.5 0.00 0.09 0.00 81 1006.5
20260507055004 56 276 1.7 3.5 0.00 0.09 0.00 80 1006.7
20260507054511 56 271 1.7 3.5 0.00 0.09 0.00 80 1006.6
20260507054003 56 298 1.7 3.5 0.00 0.09 0.00 80 1006.7
20260507053503 56 280 1.7 4.3 0.00 0.09 0.00 80 1006.7
20260507053009 56 290 2.6 5.2 0.00 0.09 0.00 79 1007.1
20260507052502 57 288 3.5 5.2 0.00 0.09 0.00 79 1006.9
20260507052006 57 276 1.7 2.6 0.00 0.09 0.00 79 1006.8
20260507051512 57 277 1.7 2.6 0.00 0.09 0.00 80 1006.9
20260507051004 57 281 0.9 3.5 0.00 0.09 0.00 81 1006.7
20260507050503 57 304 1.7 3.5 0.00 0.09 0.00 82 1006.6
20260507050008 58 288 1.7 2.6 0.00 0.09 0.00 83 1006.6
20260507045504 58 10 0.9 3.5 0.00 0.09 0.00 85 1006.6
20260507045004 58 294 1.7 3.5 0.00 0.09 0.00 85 1006.6
20260507044527 58 287 1.7 2.6 0.00 0.09 0.00 85 1006.7
20260507044003 59 300 1.7 3.5 0.00 0.09 0.00 85 1006.7
20260507043503 59 295 2.6 3.5 0.00 0.09 0.00 85 1006.6
20260507043010 59 290 1.7 3.5 0.00 0.09 0.00 86 1006.6
20260507042503 59 287 1.7 4.3 0.00 0.09 0.00 86 1006.5
20260507042002 59 279 1.7 4.3 0.00 0.09 0.00 87 1006.5
20260507041510 59 266 1.7 4.3 0.00 0.09 0.00 88 1006.6
20260507041004 59 292 1.7 3.5 0.00 0.09 0.00 89 1006.5
20260507040503 60 286 0.9 1.7 0.00 0.09 0.00 90 1006.6
20260507040011 60 268 0.9 1.7 0.00 0.09 0.00 90 1006.7
20260507035504 60 285 0.9 1.7 0.00 0.09 0.09 90 1006.8
20260507035002 59 288 0.9 1.7 0.00 0.09 0.09 90 1006.8
20260507034514 59 296 0.9 1.7 0.00 0.09 0.09 90 1006.8
20260507034003 59 217 0.9 1.7 0.00 0.09 0.09 91 1006.7
20260507033503 59 253 0.9 2.6 0.00 0.09 0.09 91 1006.6
20260507033010 59 222 0.0 2.6 0.00 0.09 0.09 91 1006.4
20260507032504 59 295 0.0 1.7 0.00 0.09 0.09 91 1006.4
20260507032004 59 311 0.0 1.7 0.00 0.09 0.09 91 1006.4
20260507031515 59 262 0.0 1.7 0.00 0.09 0.09 91 1006.5
20260507031004 59 321 0.0 1.7 0.00 0.09 0.09 91 1006.3
20260507030506 59 265 0.0 1.7 0.00 0.09 0.09 91 1006.2
20260507030012 59 193 0.0 1.7 0.00 0.09 0.09 91 1006.1
20260507025503 59 8 0.0 2.6 0.00 0.09 0.09 91 1006.1
20260507025003 59 63 0.0 2.6 0.00 0.09 0.09 91 1006.2
20260507024515 59 248 0.0 1.7 0.00 0.09 0.09 91 1006.0
20260507024003 59 282 0.0 1.7 0.00 0.09 0.09 91 1005.8
20260507023504 59 186 0.0 1.7 0.00 0.09 0.09 91 1006.0
20260507023012 58 280 0.9 1.7 0.00 0.09 0.09 91 1006.1
20260507022504 58 306 0.0 2.6 0.00 0.09 0.09 91 1006.2
20260507022005 58 179 0.9 2.6 0.00 0.09 0.09 91 1006.0
20260507021519 58 265 0.9 2.6 0.00 0.09 0.09 91 1005.9
20260507021002 58 139 0.0 2.6 0.00 0.09 0.09 91 1005.9
20260507020508 58 212 0.9 1.7 0.00 0.09 0.09 92 1006.0
20260507020016 58 217 0.0 4.3 0.00 0.09 0.09 91 1006.1
20260507015503 58 229 0.9 4.3 0.00 0.09 0.09 91 1006.1
20260507015003 58 233 0.0 3.5 0.00 0.09 0.09 92 1006.1
20260507014515 58 343 0.0 3.5 0.00 0.09 0.09 91 1005.9
20260507014003 58 181 0.0 2.6 0.00 0.09 0.09 91 1005.9
20260507013504 58 199 0.0 3.5 0.00 0.09 0.09 91 1005.9
20260507013013 58 173 0.9 3.5 0.00 0.09 0.09 92 1006.1
20260507012503 58 163 0.0 1.7 0.00 0.09 0.09 91 1006.2
20260507012006 58 116 0.0 1.7 0.00 0.09 0.09 92 1006.2
20260507011515 58 196 0.0 1.7 0.00 0.09 0.09 91 1006.4
20260507011007 58 126 0.0 2.6 0.00 0.09 0.09 91 1006.4
20260507010507 58 186 0.9 2.6 0.01 0.09 0.09 91 1006.5
20260507010020 58 239 0.0 4.3 0.01 0.09 0.09 91 1006.4
20260507005503 58 227 0.9 4.3 0.01 0.09 0.09 91 1006.4
20260507005008 58 178 0.9 2.6 0.01 0.09 0.09 91 1006.5
20260507004512 58 128 0.0 4.3 0.01 0.09 0.09 91 1006.4
20260507004003 58 158 0.9 4.3 0.01 0.09 0.09 91 1006.5
20260507003508 58 313 0.9 3.5 0.01 0.09 0.09 91 1006.4
20260507003021 58 360 0.0 2.6 0.02 0.09 0.09 91 1006.3
20260507002505 58 56 0.0 2.6 0.02 0.09 0.09 91 1006.3
20260507002008 58 115 0.0 2.6 0.02 0.09 0.09 91 1006.2
20260507001522 58 226 0.0 7.0 0.03 0.09 0.09 91 1006.2
20260507001007 58 299 0.0 7.0 0.03 0.09 0.09 91 1006.1
20260507000507 58 139 0.9 3.5 0.03 0.08 0.08 91 1006.0
20260507000016 58 189 0.0 3.5 0.04 0.08 0.08 91 1006.0
20260506235508 58 218 0.0 3.5 0.04 0.08 0.08 91 1005.9
20260506235008 58 200 0.9 2.6 0.04 0.08 0.08 91 1006.0
20260506234521 58 180 0.9 3.5 0.04 0.08 0.08 91 1006.0
20260506234007 58 199 0.0 5.2 0.04 0.08 0.08 91 1005.9
20260506233507 58 302 0.9 5.2 0.04 0.08 0.08 91 1005.9
20260506233016 58 12 0.9 1.7 0.03 0.07 0.07 90 1006.0
20260506232504 58 40 0.0 1.7 0.03 0.07 0.07 90 1005.9
20260506232005 59 11 0.0 3.5 0.03 0.07 0.07 90 1005.9
20260506231518 59 247 0.9 3.5 0.02 0.06 0.06 90 1005.9
20260506231007 59 95 0.0 3.5 0.02 0.06 0.06 90 1005.9
20260506230506 59 283 0.9 5.2 0.01 0.05 0.05 90 1006.0
20260506230021 59 186 0.9 7.8 0.00 0.04 0.04 90 1005.9
20260506225507 59 117 0.0 7.8 0.00 0.04 0.04 90 1006.0
20260506225010 59 356 0.0 1.7 0.00 0.04 0.04 90 1005.9
20260506224521 59 353 0.9 3.5 0.00 0.04 0.04 90 1006.0
20260506224005 59 346 0.0 3.5 0.00 0.04 0.04 90 1006.0
20260506223506 59 238 0.0 2.6 0.01 0.04 0.04 90 1006.1
20260506223017 59 234 0.9 7.0 0.01 0.04 0.04 90 1006.1
20260506222506 59 216 1.7 7.0 0.01 0.04 0.04 90 1006.1
20260506222008 59 288 0.9 3.5 0.01 0.04 0.04 90 1006.1
20260506221519 59 264 0.9 3.5 0.01 0.04 0.04 90 1006.3
20260506221007 59 287 0.0 3.5 0.01 0.04 0.04 90 1006.3
20260506220507 59 193 0.9 3.5 0.01 0.04 0.04 90 1006.4
20260506220021 59 23 0.0 4.3 0.01 0.04 0.04 90 1006.4
20260506215504 59 125 0.9 4.3 0.01 0.04 0.04 90 1006.4
20260506215007 59 17 0.0 1.7 0.01 0.04 0.04 89 1006.4
20260506214523 60 229 0.0 2.6 0.01 0.04 0.04 89 1006.4
20260506214008 60 120 0.9 2.6 0.01 0.04 0.04 88 1006.4
20260506213504 60 84 0.0 2.6 0.00 0.03 0.03 88 1006.6
20260506213022 60 335 0.9 3.5 0.00 0.03 0.03 87 1006.6
20260506212508 60 232 1.7 3.5 0.00 0.03 0.03 86 1006.8
20260506212011 61 236 1.7 3.5 0.00 0.03 0.03 86 1006.7
20260506211523 61 174 0.0 2.6 0.00 0.03 0.03 86 1006.7
20260506211006 61 65 0.9 2.6 0.00 0.03 0.03 85 1006.7
20260506210507 61 333 0.9 2.6 0.00 0.03 0.03 85 1006.7
20260506210023 61 264 0.0 5.2 0.00 0.03 0.03 84 1006.7
20260506205511 61 209 0.9 5.2 0.00 0.03 0.03 84 1006.7
20260506205003 61 96 1.7 3.5 0.00 0.03 0.03 84 1006.8
20260506204504 61 359 0.9 6.1 0.01 0.03 0.03 84 1006.9
20260506204004 61 212 0.9 7.0 0.01 0.03 0.03 85 1006.8
20260506203503 61 294 1.7 9.6 0.01 0.03 0.03 84 1007.0
20260506203008 61 252 1.7 9.6 0.01 0.03 0.03 84 1007.0
20260506202504 61 146 0.9 9.6 0.02 0.03 0.03 83 1007.0
20260506202009 61 217 1.7 9.6 0.02 0.03 0.03 83 1007.1
20260506201511 61 1 1.7 9.6 0.02 0.03 0.03 83 1007.0
20260506201007 61 213 1.7 4.3 0.03 0.03 0.03 84 1006.9
20260506200508 61 338 0.9 4.3 0.03 0.03 0.03 84 1006.8
20260506200017 61 250 0.9 3.5 0.03 0.03 0.03 84 1006.8
20260506195507 61 221 0.9 3.5 0.03 0.03 0.03 84 1006.9
20260506195006 61 350 0.9 2.6 0.03 0.03 0.03 84 1006.8
20260506194524 61 288 1.7 2.6 0.02 0.02 0.02 83 1006.8
20260506194004 62 316 0.0 6.1 0.02 0.02 0.02 83 1006.9
20260506193503 62 300 1.7 6.1 0.02 0.02 0.02 82 1006.9
20260506193007 62 124 0.0 4.3 0.02 0.02 0.02 83 1007.2
20260506192505 62 250 0.9 2.6 0.01 0.01 0.01 82 1007.1
20260506192003 62 208 0.9 3.5 0.01 0.01 0.01 80 1007.0
20260506191510 63 13 0.9 6.1 0.01 0.01 0.01 78 1007.1
20260506191004 63 323 0.9 7.8 0.00 0.00 0.00 77 1007.2
20260506190506 64 135 2.6 7.8 0.00 0.00 0.00 74 1007.2
20260506190016 65 266 0.9 3.5 0.00 0.00 0.00 72 1007.1
20260506185505 66 307 0.9 3.5 0.00 0.00 0.00 70 1007.1
20260506185007 67 309 0.9 5.2 0.00 0.00 0.00 68 1007.0
20260506184527 67 323 1.7 7.0 0.00 0.00 0.00 67 1007.2
20260506184007 67 1 1.7 7.0 0.00 0.00 0.00 64 1007.3
20260506183507 68 79 0.0 5.2 0.00 0.00 0.00 65 1007.2
20260506183024 68 293 0.9 5.2 0.00 0.00 0.00 62 1007.2
20260506182503 69 61 0.9 4.3 0.00 0.00 0.00 61 1007.1
20260506182003 69 22 0.9 4.3 0.00 0.00 0.00 58 1007.3
20260506181508 70 345 0.9 5.2 0.00 0.00 0.00 59 1007.3
20260506181004 70 274 2.6 5.2 0.00 0.00 0.00 57 1007.2
20260506180505 70 295 1.7 3.5 0.00 0.00 0.00 57 1007.3
20260506180022 70 360 1.7 6.1 0.00 0.00 0.00 56 1007.2
20260506175506 70 229 1.7 6.1 0.00 0.00 0.00 56 1007.5
20260506175005 70 212 2.6 6.1 0.00 0.00 0.00 55 1007.4
20260506174518 71 336 1.7 7.0 0.00 0.00 0.00 55 1007.4
20260506174008 71 50 0.9 7.0 0.00 0.00 0.00 54 1007.6
20260506173508 71 89 1.7 6.1 0.00 0.00 0.00 53 1007.6
20260506173022 72 295 1.7 6.1 0.00 0.00 0.00 53 1007.6
20260506172509 72 330 2.6 7.0 0.00 0.00 0.00 52 1007.5
20260506172009 72 320 1.7 10.4 0.00 0.00 0.00 54 1007.6
20260506171512 72 355 2.6 14.8 0.00 0.00 0.00 52 1007.6
20260506171001 72 285 4.3 14.8 0.00 0.00 0.00 52 1007.6
20260506170505 72 352 2.6 6.1 0.00 0.00 0.00 52 1007.6
20260506170009 72 340 2.6 7.8 0.00 0.00 0.00 53 1007.6
20260506165505 72 318 2.6 7.8 0.00 0.00 0.00 54 1007.7
20260506165006 72 342 2.6 6.1 0.00 0.00 0.00 54 1007.8
20260506164518 71 100 2.6 5.2 0.00 0.00 0.00 53 1007.9
20260506164009 71 1 0.9 8.7 0.00 0.00 0.00 54 1008.1
20260506163512 72 279 2.6 8.7 0.00 0.00 0.00 53 1008.0
20260506163023 72 89 2.6 8.7 0.00 0.00 0.00 53 1008.1
20260506162509 72 246 1.7 5.2 0.00 0.00 0.00 54 1008.1
20260506162013 72 205 1.7 5.2 0.00 0.00 0.00 55 1008.2
20260506161525 72 83 1.7 6.1 0.00 0.00 0.00 55 1008.4
20260506161009 72 151 1.7 6.1 0.00 0.00 0.00 54 1008.4
20260506160509 72 35 1.7 5.2 0.00 0.00 0.00 54 1008.4
20260506160009 72 340 1.7 5.2 0.00 0.00 0.00 56 1008.5
20260506155503 71 205 0.9 7.0 0.00 0.00 0.00 56 1008.6
20260506155006 71 334 1.7 7.0 0.00 0.00 0.00 56 1008.8
20260506154512 71 283 1.7 6.1 0.00 0.00 0.00 55 1008.8
20260506154008 71 39 1.7 5.2 0.00 0.00 0.00 55 1008.9
20260506153508 71 27 1.7 7.0 0.00 0.00 0.00 55 1009.0
20260506153016 71 162 1.7 7.8 0.00 0.00 0.00 54 1009.0
20260506152505 71 89 1.7 7.8 0.00 0.00 0.00 56 1009.2
20260506152006 71 109 1.7 7.0 0.00 0.00 0.00 55 1009.2
20260506151532 71 314 1.7 7.0 0.00 0.00 0.00 56 1009.1
20260506151014 71 328 0.9 6.1 0.00 0.00 0.00 55 1009.3
20260506150507 72 340 1.7 4.3 0.00 0.00 0.00 55 1009.3
20260506150026 72 14 0.9 3.5 0.00 0.00 0.00 57 1009.3
20260506145517 72 224 0.9 4.3 0.00 0.00 0.00 56 1009.2
20260506145005 71 304 0.9 6.1 0.00 0.00 0.00 56 1009.4
20260506144508 71 315 0.9 6.1 0.00 0.00 0.00 58 1009.3
20260506144008 71 333 0.9 9.6 0.00 0.00 0.00 58 1009.2
20260506143505 71 39 1.7 9.6 0.00 0.00 0.00 58 1009.2
20260506143019 71 158 1.7 7.0 0.00 0.00 0.00 59 1009.3
20260506142508 70 302 0.9 7.0 0.00 0.00 0.00 60 1009.2
20260506142006 70 110 0.0 3.5 0.00 0.00 0.00 62 1009.1
20260506141521 69 295 0.9 2.6 0.00 0.00 0.00 63 1009.1
20260506141011 70 61 0.9 4.3 0.00 0.00 0.00 62 1009.1
20260506140506 69 198 0.9 4.3 0.00 0.00 0.00 63 1009.2
20260506140029 68 21 0.9 4.3 0.00 0.00 0.00 65 1009.3
20260506135510 68 226 0.9 5.2 0.00 0.00 0.00 65 1009.3
20260506135008 68 226 0.9 7.0 0.00 0.00 0.00 65 1009.3
20260506134526 67 111 2.6 7.0 0.00 0.00 0.00 65 1009.4
20260506134002 67 169 0.9 4.3 0.00 0.00 0.00 67 1009.3
20260506133503 66 233 0.9 4.3 0.00 0.00 0.00 68 1009.5
20260506133027 66 213 1.7 4.3 0.00 0.00 0.00 68 1009.8
20260506132508 66 320 0.9 5.2 0.00 0.00 0.00 68 1009.9
20260506132008 66 1 0.9 5.2 0.00 0.00 0.00 68 1009.8
20260506131523 66 110 0.9 5.2 0.00 0.00 0.00 69 1009.9
20260506131006 66 210 1.7 5.2 0.00 0.00 0.00 69 1009.9
20260506130507 65 353 0.9 6.1 0.00 0.00 0.00 70 1009.8
20260506130022 65 338 0.9 6.1 0.00 0.00 0.00 71 1009.8
20260506125509 65 256 0.9 5.2 0.00 0.00 0.00 71 1009.8
20260506125007 64 165 0.9 7.8 0.00 0.00 0.00 72 1009.7
20260506124524 64 231 0.9 7.8 0.00 0.00 0.00 73 1009.9
20260506124009 64 197 0.9 4.3 0.00 0.00 0.00 73 1009.8
20260506123507 63 107 0.0 5.2 0.00 0.00 0.00 73 1009.9
20260506123028 63 281 1.7 5.2 0.00 0.00 0.00 73 1010.1
20260506122503 63 168 0.9 5.2 0.00 0.00 0.00 73 1010.0
20260506122004 63 162 0.9 5.2 0.00 0.00 0.00 74 1010.0
20260506121517 62 327 0.9 3.5 0.00 0.00 0.00 75 1009.9
20260506121003 62 240 0.9 3.5 0.00 0.00 0.00 75 1009.9
20260506120507 62 283 0.0 6.1 0.00 0.00 0.00 75 1009.9
20260506120034 62 117 1.7 6.1 0.00 0.00 0.00 76 1009.9
20260506115512 61 49 0.9 2.6 0.00 0.00 0.00 77 1010.1
20260506115006 61 41 0.0 2.6 0.00 0.00 0.00 77 1010.2
20260506114523 61 168 0.0 5.2 0.00 0.00 0.00 77 1010.1
20260506114005 61 293 0.0 5.2 0.00 0.00 0.00 77 1010.1
20260506113504 61 203 0.9 3.5 0.00 0.00 0.00 77 1010.3
20260506113010 61 178 0.9 3.5 0.00 0.00 0.00 77 1010.6
20260506112503 61 270 0.0 3.5 0.00 0.00 0.00 77 1010.5
20260506112006 61 196 0.9 3.5 0.00 0.00 0.00 77 1010.4
20260506111515 61 207 0.0 2.6 0.00 0.00 0.00 78 1010.3
20260506111006 61 19 0.9 2.6 0.00 0.00 0.00 78 1010.3
20260506110509 60 198 0.0 2.6 0.00 0.00 0.00 77 1010.2
20260506110019 60 258 0.9 2.6 0.00 0.00 0.00 78 1010.1
20260506105506 60 360 0.9 2.6 0.00 0.00 0.00 78 1010.2
20260506105008 60 161 0.0 4.3 0.00 0.00 0.00 78 1010.1
20260506104523 60 296 0.9 4.3 0.00 0.00 0.00 79 1010.2
20260506104008 60 102 0.9 1.7 0.00 0.00 0.00 79 1010.2
20260506103507 60 172 0.9 1.7 0.00 0.00 0.00 78 1010.3
20260506103006 60 270 0.0 1.7 0.00 0.00 0.00 78 1010.4
20260506102504 60 262 0.0 1.7 0.00 0.00 0.00 78 1010.3
20260506102004 60 25 0.0 2.6 0.00 0.00 0.00 78 1010.4
20260506101509 60 313 0.0 3.5 0.00 0.00 0.00 77 1010.3
20260506101010 60 238 0.9 3.5 0.00 0.00 0.00 78 1010.3
20260506100503 60 269 0.9 2.6 0.00 0.00 0.00 78 1010.2
20260506100026 60 219 0.9 2.6 0.00 0.00 0.00 78 1010.2
20260506095505 59 322 0.9 3.5 0.00 0.00 0.00 78 1010.1
20260506095006 60 214 0.0 3.5 0.00 0.00 0.00 78 1010.1
20260506094520 60 188 0.0 2.6 0.00 0.00 0.00 78 1010.0
20260506094011 59 91 0.9 2.6 0.00 0.00 0.00 78 1010.1
20260506093512 60 187 0.0 1.7 0.00 0.00 0.00 78 1010.1
20260506093024 60 67 0.0 4.3 0.00 0.00 0.00 77 1010.2
20260506092509 60 67 0.0 4.3 0.00 0.00 0.00 77 1010.2
20260506092010 60 53 0.9 4.3 0.00 0.00 0.00 76 1010.2
20260506091510 60 226 0.9 4.3 0.00 0.00 0.00 76 1010.2
20260506091004 60 233 0.9 4.3 0.00 0.00 0.00 76 1010.2
20260506090505 60 137 0.9 6.1 0.00 0.00 0.00 76 1010.2
20260506090012 60 160 0.0 6.1 0.00 0.00 0.00 76 1010.2
20260506085504 60 285 0.0 5.2 0.00 0.00 0.00 76 1010.3
20260506085006 60 130 0.9 6.1 0.00 0.00 0.00 76 1010.3
20260506084523 60 281 0.9 6.1 0.00 0.00 0.00 76 1010.5
20260506084008 60 328 0.9 2.6 0.00 0.00 0.00 76 1010.3
20260506083507 60 16 0.9 3.5 0.00 0.00 0.00 76 1010.3
20260506083027 60 270 0.0 3.5 0.00 0.00 0.00 75 1010.3
20260506082506 60 228 0.0 2.6 0.00 0.00 0.00 75 1010.3
20260506082009 60 63 0.0 3.5 0.00 0.00 0.00 75 1010.3
20260506081528 60 235 0.9 4.3 0.00 0.00 0.00 75 1010.3
20260506081015 60 102 0.9 4.3 0.00 0.00 0.00 74 1010.3
20260506080504 61 281 0.9 3.5 0.00 0.00 0.00 74 1010.4
20260506073505 61 349 0.9 5.2 0.00 0.00 0.00 72 1010.3
20260506073021 61 214 1.7 5.2 0.00 0.00 0.00 72 1010.2
20260506072509 61 223 0.9 5.2 0.00 0.00 0.00 72 1010.2
20260506072015 61 210 0.9 3.5 0.00 0.00 0.00 72 1010.2
20260506071525 62 239 1.7 5.2 0.00 0.00 0.00 72 1010.1
20260506071007 62 79 0.9 6.1 0.00 0.00 0.00 71 1010.1
20260506070510 62 176 0.9 6.1 0.00 0.00 0.00 71 1010.0
20260506062507 63 22 0.0 7.0 0.00 0.00 0.00 68 1009.7
20260506062008 63 266 2.6 7.0 0.00 0.00 0.00 68 1009.7
20260506061523 63 71 0.9 5.2 0.00 0.00 0.00 67 1009.7
20260506061006 64 269 0.9 5.2 0.00 0.00 0.00 67 1009.7